Regional Weather Roundup
Issued by NWS

Home | Current Version | Previous Version | Text Only | Print | Product List | Glossary On
Versions: 1 2 3 4 5 6 7 8 9 10 11 12 13 14 15 16 17 18 19 20 21 22 23 24 25 26 27
000
ASUS42 KFFC 300103
RWRGA
WEATHER ROUNDUP FOR GEORGIA
NATIONAL WEATHER SERVICE PEACHTREE CITY GA
900 PM EDT SUN MAY 29 2016

NOTE: "FAIR" INDICATES FEW OR NO CLOUDS BELOW 12,000 FEET WITH NO
SIGNIFICANT WEATHER AND/OR OBSTRUCTIONS TO VISIBILITY.

* = USE WITH CAUTION. THE STATIONS MARKED WITH AN ASTERISK MAY NOT
REPORT WEATHER SUCH AS PRECIPITATION, FOG, OR THUNDER AND ARE NOT
QUALITY CONTROLLED BY NWS.

THE REMARK "TC" DENOTES TEMPERATURE READING IN DEGREES CELSIUS.

GAZ001>058-300200-
NORTH GEORGIA

CITY           SKY/WX    TMP DP  RH WIND       PRES   REMARKS
ATLANTA        PTCLDY    80  65  59 SE6       30.04S
ATHENS         MOCLDY    71  62  73 CALM      30.05R
CHAMBLEE       PTCLDY    76  63  64 CALM      30.05R
ROME           CLEAR     80  63  55 W5        30.01R
WEST ATLANTA   CLEAR     79  62  56 CALM      30.02S
GAINESVILLE    CLOUDY    71  61  70 CALM      30.08R
CARTERSVILLE   CLEAR     75  65  70 CALM      30.03R


CITY           SKY/WX    TMP DP  RH WIND       PRES   REMARKS
DALTON*        CLEAR     79  64  61 CALM      30.02R
LAWRENCEVILLE* MOCLDY    73  64  73 E5        30.06S
MARIETTA       MOCLDY    80  63  55 VRB1      30.04R
KENNESAW*      PTCLDY    82  61  47 NW6       29.99R
CANTON*        PTCLDY    77  61  57 CALM      30.07R
BLAIRSVILLE*     N/A    N/A N/A N/A MISG      30.10R
$$

GAZ059>098-102>109-300200-
CENTRAL GEORGIA

CITY           SKY/WX    TMP DP  RH WIND       PRES   REMARKS
AUGUSTA-BUSH   CLOUDY    73  64  73 NW9       29.98R
AUGUSTA-DANIEL PTCLDY    73  63  70 NW7       30.00R
COLUMBUS       CLEAR     84  63  49 W5        30.00R
MACON          CLOUDY    76  64  66 NE5       30.02S
ROBINS AFB     PTCLDY    76  67  74 NE1       30.01S


CITY           SKY/WX    TMP DP  RH WIND       PRES   REMARKS
LAGRANGE*      CLEAR     79  68  68 CALM      30.02S
SYLVANIA*      DRIZZLE   69  67  92 W5        29.99S
MILLEDGEVILLE* CLOUDY    75  63  64 CALM      30.04R
$$

GAZ099>101-110>166-300200-
SOUTH GEORGIA

CITY           SKY/WX    TMP DP  RH WIND       PRES   REMARKS
SAVANNAH       CLOUDY    70  63  78 W13       29.97R
VALDOSTA       CLOUDY    80  65  59 CALM      30.00S
ALMA           CLEAR     74  62  66 CALM      30.00S
ST SIMONS      CLEAR     79  58  48 NW6       29.98R
FT STEWART     CLOUDY    75  61  62 W6        29.96S
ALBANY         MOCLDY    82  64  54 CALM      30.01R
HUNTER AFB     CLEAR     69  67  95 W6        29.94S
MOODY AFB      CLOUDY    82  64  55 NE3       29.99F
BRUNSWICK      CLEAR     81  61  50 CALM      29.99R


CITY           SKY/WX    TMP DP  RH WIND       PRES   REMARKS
BAINBRIDGE*    CLEAR     82  64  54 CALM      29.99F
MOULTRIE*      CLEAR     81  64  57 CALM      30.00F
VIDALIA*       MOCLDY    77  59  53 CALM      30.01S
WAYCROSS*      CLEAR     76  63  63 CALM      30.00R
DOUGLAS*       CLEAR     81  61  50 CALM      30.02S
$$




USA.gov is the U.S. government's official web portal to all federal, state and local government web resources and services.